Theta_e
313 311 308 308 310 312 312 312 311 310 310 311 311 312 313 312 311 311 312 312 313 321 322 322 335 348 348 349 347 345 349 353 351 351 351 344 345 343 345 344 344 344 343 342 339
312 310 308 308 309 311 312 312 311 310 310 311 310 311 313 313 313 313 312 312 314 320 320 325 341 344 344 349 346 346 350 352 346 346 350 348 343 344 344 345 344 342 343 343 342
312 310 309 310 311 310 309 310 311 311 311 311 310 309 312 313 312 319 316 312 315 317 320 330 344 333 336 347 346 345 350 348 348 348 346 345 342 343 345 346 343 342 342 341 344
312 310 309 314 315 314 313 309 309 309 310 310 309 309 311 312 315 325 320 313 312 315 319 336 333 330 339 342 347 347 345 345 346 346 346 349 347 343 343 344 341 340 341 341 344
312 311 310 314 314 314 314 312 309 308 309 309 309 309 311 313 315 321 321 317 313 316 317 329 330 330 330 345 344 345 345 345 345 346 344 346 348 344 345 343 342 342 343 343 343
312 312 310 314 314 314 315 316 316 309 307 308 309 309 310 312 317 323 321 314 313 315 316 320 329 330 329 337 344 345 344 344 344 344 345 346 348 345 344 344 344 343 344 344 342
312 312 312 313 314 315 316 316 317 319 307 307 308 308 309 314 321 323 322 318 315 315 315 316 329 327 327 342 345 345 348 346 346 345 348 346 349 347 342 345 344 344 344 344 343
311 312 312 312 314 315 316 315 317 319 314 307 310 318 311 315 323 320 320 322 316 316 315 313 317 321 324 342 344 346 348 352 345 345 347 346 351 345 344 344 344 343 343 343 343
312 312 312 312 314 315 316 316 318 323 322 319 311 315 317 319 317 318 319 320 315 314 314 315 318 322 323 332 342 342 352 351 349 345 347 347 349 344 344 344 344 344 343 343 344
314 312 313 313 314 316 315 317 320 322 321 321 319 319 321 322 321 320 320 320 315 314 314 316 318 317 316 319 327 348 344 345 346 346 343 345 349 343 344 344 345 344 344 344 344
313 313 312 313 313 315 317 319 319 320 319 321 321 321 321 322 322 319 320 321 321 316 315 318 318 320 319 320 335 344 343 348 343 341 345 345 349 344 343 343 342 344 343 344 344
312 314 313 313 313 315 319 319 318 317 317 321 321 321 321 322 321 319 319 321 321 320 317 316 319 319 320 323 326 338 341 347 343 341 342 345 345 346 343 343 343 340 342 344 344
312 314 314 313 313 316 319 318 318 317 318 321 322 323 321 322 322 322 321 322 320 319 318 318 320 320 323 324 327 328 329 345 348 344 341 347 350 348 343 342 345 341 342 343 343
312 314 314 313 316 319 318 319 319 319 316 319 322 323 322 322 321 323 325 323 317 319 315 317 317 319 320 322 325 330 343 344 347 349 351 346 354 348 346 345 344 344 342 342 343
314 315 314 312 316 319 317 319 321 321 321 322 320 321 320 321 321 321 323 322 316 318 316 317 316 317 319 320 330 344 341 343 342 341 344 347 347 345 344 346 345 343 342 342 343
315 314 314 313 316 316 319 320 320 319 326 325 322 320 320 323 322 320 320 321 319 316 315 315 317 316 317 320 337 339 339 338 336 338 342 343 345 342 347 345 343 342 343 343 343
313 313 313 313 316 318 320 321 320 322 323 325 321 320 320 322 322 322 317 317 316 317 317 316 316 316 322 336 337 337 337 342 339 341 342 338 343 339 340 340 342 342 344 343 343
312 312 313 313 314 318 320 319 324 325 326 323 323 323 324 324 324 322 319 317 316 316 315 316 317 315 327 336 339 338 333 337 345 343 340 341 345 344 339 338 339 341 345 343 343
313 315 314 313 316 318 320 321 322 324 325 324 323 324 324 325 324 323 323 321 317 314 316 318 321 321 326 333 335 336 334 331 332 329 330 337 342 342 344 345 344 340 344 344 344
317 319 317 313 316 319 316 320 321 322 323 322 323 323 325 324 325 324 325 323 324 316 315 317 320 322 322 331 324 329 326 332 333 336 332 332 345 342 344 347 343 342 344 344 345
319 321 317 314 317 319 319 318 319 323 322 322 322 324 323 325 325 325 325 325 325 323 316 316 318 322 322 325 327 325 323 321 328 332 327 345 341 341 343 344 344 343 343 344 343
317 317 321 319 318 312 316 318 323 323 320 322 321 322 323 324 326 326 326 324 326 322 320 319 315 323 324 321 322 320 318 317 325 322 321 328 325 335 340 340 341 342 344 343 343
316 321 321 320 315 316 316 319 322 319 317 319 321 321 323 325 326 325 325 325 324 321 321 320 320 322 327 324 324 325 325 314 311 314 319 320 321 336 337 338 339 341 342 339 342
318 320 320 321 318 317 319 319 319 317 316 320 319 321 322 322 320 323 323 324 323 324 320 322 320 321 324 327 325 327 332 323 317 320 318 319 337 337 333 335 335 338 345 344 342
320 320 325 325 322 319 321 321 322 318 318 319 319 321 322 322 320 318 318 318 322 321 321 319 321 323 323 327 331 335 337 337 334 325 326 334 340 337 331 334 337 343 345 346 343
325 327 325 325 325 323 318 318 321 315 318 319 317 316 315 315 318 318 315 316 319 316 321 316 321 319 326 330 329 334 335 339 340 338 338 339 338 333 335 338 337 340 340 344 348
318 322 325 325 323 322 320 321 316 316 318 318 316 315 318 315 316 316 315 314 313 317 320 319 318 318 322 326 329 329 331 336 337 337 336 337 333 330 336 336 337 337 339 340 344
Wind_Speed
13 13 13 11 9 8 6 4 4 4 4 4 5 7 7 7 8 9 10 5 7 8 12 9 10 7 4 4 3 2 3 3 2 4 3 10 5 4 6 18 3 2 19 27 27
13 14 13 11 10 9 8 6 5 4 4 4 5 6 7 7 9 9 4 6 9 8 12 10 12 8 2 2 2 3 3 2 0 1 2 7 10 7 9 9 8 20 20 26 26
13 14 13 12 11 10 9 8 6 5 4 4 5 5 6 7 6 2 1 10 14 11 11 10 11 4 3 1 3 2 3 4 2 4 4 6 12 7 19 2 15 28 31 26 25
12 13 13 11 11 11 11 9 8 6 5 4 4 5 4 3 3 2 1 11 15 14 12 14 9 3 2 2 2 4 8 4 3 4 4 4 1 13 6 4 27 29 30 29 26
11 12 11 10 11 12 12 12 10 8 6 5 4 4 3 3 1 2 2 11 17 14 15 13 9 4 2 2 3 3 8 7 8 5 1 6 2 4 4 9 27 28 28 28 24
11 11 11 10 11 11 12 12 12 11 7 5 4 2 2 2 1 3 7 7 16 13 14 12 6 2 3 1 3 6 6 7 4 4 1 4 2 8 13 19 28 30 30 28 25
10 10 10 10 10 10 11 11 12 11 8 6 4 4 5 3 5 5 7 4 7 11 9 12 7 6 3 3 2 7 4 4 4 6 3 2 2 9 27 26 29 31 29 28 26
10 10 10 9 9 9 11 13 13 9 8 7 5 7 2 5 7 7 4 2 4 8 8 6 11 4 1 8 4 4 3 2 2 5 3 3 2 3 29 29 26 28 28 28 26
11 10 10 9 7 8 11 14 12 7 6 9 6 7 3 1 7 6 4 1 2 8 11 8 7 1 2 4 4 6 3 5 6 6 8 3 2 3 28 29 25 25 27 27 23
12 10 9 9 6 7 12 11 10 4 9 6 6 3 3 6 3 4 6 5 5 10 7 4 3 3 4 4 3 4 4 3 5 6 7 16 10 9 19 23 23 23 25 25 29
12 11 9 9 6 7 10 8 10 3 14 5 10 7 6 5 4 4 9 9 4 3 4 2 5 5 5 5 4 6 5 7 7 3 3 9 6 12 11 15 12 23 24 31 32
13 11 10 9 5 5 8 6 9 9 9 4 5 7 4 0 3 4 10 5 4 2 2 5 5 5 5 5 5 5 5 4 3 8 5 1 7 9 13 16 21 25 27 31 30
14 13 10 8 4 3 4 9 15 16 1 5 4 4 2 3 2 7 14 6 3 3 3 6 3 10 6 4 4 1 4 4 5 9 6 5 5 3 6 9 6 22 30 30 38
15 13 9 6 1 2 2 11 18 6 4 5 3 1 2 2 1 8 14 5 1 7 6 3 2 5 5 3 5 3 8 9 11 14 3 5 3 4 7 12 8 8 31 30 37
16 14 8 3 3 1 4 13 10 1 4 2 2 1 2 2 0 4 13 7 3 3 5 5 3 1 3 6 4 2 11 3 4 3 2 4 1 3 12 10 16 17 28 34 38
18 12 5 5 7 3 6 13 1 5 2 5 1 1 2 5 2 2 4 4 2 4 1 7 4 6 6 6 7 15 8 3 4 2 1 1 4 3 9 16 17 19 24 30 41
15 8 4 6 5 2 8 6 5 5 3 2 0 4 4 5 5 4 4 2 3 2 2 5 5 3 6 8 5 5 6 1 4 3 4 4 3 7 11 15 25 25 27 33 38
9 4 2 5 7 4 8 4 4 1 3 2 1 3 3 3 3 6 3 2 2 3 0 2 1 8 6 8 10 7 8 4 4 3 3 2 4 5 7 12 21 31 29 34 40
7 3 2 4 7 3 4 4 4 3 3 1 2 3 3 2 1 1 1 2 5 7 6 1 4 2 5 5 9 5 4 3 6 1 1 3 6 5 3 1 9 23 34 38 37
5 2 1 4 5 2 4 3 4 5 2 1 3 2 3 3 2 2 1 2 3 7 4 3 2 3 3 9 7 8 8 3 4 3 4 4 4 2 5 3 4 17 25 24 31
4 4 4 8 4 1 2 5 5 10 9 4 5 3 2 1 1 4 1 4 2 3 7 3 3 5 4 1 8 4 1 5 5 5 4 0 4 4 6 1 7 10 17 23 30
3 3 3 5 3 2 0 3 6 4 4 3 4 4 4 5 2 2 2 5 9 3 1 1 4 2 2 6 2 4 6 6 5 6 2 1 3 5 5 7 2 9 15 23 29
5 3 7 8 2 2 5 5 5 3 2 0 2 1 2 4 2 2 3 5 7 2 1 3 2 3 5 7 4 5 2 4 3 3 6 5 3 4 9 12 16 11 6 6 16
3 2 3 5 3 4 3 4 4 1 2 5 3 3 4 3 3 1 4 3 7 7 9 5 3 5 6 6 1 4 5 3 2 4 5 4 3 6 8 8 13 13 9 3 8
3 1 2 2 1 2 2 3 2 2 3 6 6 4 3 3 3 4 3 6 5 9 7 5 4 2 4 2 3 3 4 8 1 2 3 5 5 2 4 4 6 8 12 10 4
3 3 3 2 3 2 3 4 5 2 1 1 6 1 3 4 3 1 2 1 2 6 3 3 2 3 6 7 9 5 9 5 4 3 6 10 4 2 4 11 16 18 17 16 13
2 2 2 3 2 1 3 4 4 7 3 4 8 4 2 4 4 4 4 6 2 1 2 3 4 1 3 2 6 5 7 6 2 3 2 2 3 3 8 13 14 14 13 13 13
Wind_Direction
15 13 13 13 9 5 359 342 322 298 289 285 278 278 283 289 284 277 266 245 207 201 180 162 148 137 105 93 70 22 62 97 61 130 94 141 120 170 109 132 107 123 150 154 157
15 14 16 20 17 12 6 358 346 326 305 298 297 286 287 298 294 279 239 200 198 178 177 162 152 140 87 109 67 75 75 66 67 63 342 149 142 130 118 124 97 122 148 154 163
14 13 15 21 25 21 13 4 358 346 328 310 308 300 300 313 312 79 16 186 179 155 168 153 159 121 99 81 29 66 103 143 83 70 13 129 137 130 132 161 167 148 156 164 169
14 14 16 23 22 21 18 12 360 348 331 320 312 311 303 313 138 76 49 184 192 189 167 151 158 137 104 91 79 100 95 103 141 78 25 58 3 134 166 202 166 159 158 165 174
10 13 17 21 20 19 21 20 12 355 339 325 318 322 304 262 228 48 15 193 186 179 181 172 171 149 103 88 88 74 158 169 131 151 346 330 312 164 88 169 165 164 169 172 174
9 10 11 14 17 18 17 14 13 9 356 336 323 305 272 264 175 102 81 148 189 187 180 183 195 247 25 41 185 161 178 169 191 168 130 358 117 145 204 177 170 170 178 182 179
8 8 7 7 10 10 10 5 2 6 6 359 351 323 271 228 135 133 100 121 192 195 194 191 163 59 16 88 34 89 102 108 102 161 69 80 206 199 194 177 169 176 182 187 190
4 3 3 3 360 359 353 350 345 345 6 9 9 348 274 165 166 167 153 117 206 199 194 162 206 282 25 128 83 84 110 168 90 136 59 354 251 204 181 169 175 178 187 191 197
1 359 356 354 348 346 341 345 338 337 356 348 343 349 88 70 245 248 262 348 111 153 133 139 131 165 93 91 36 12 99 84 82 23 10 302 320 168 173 175 180 182 188 193 200
359 355 350 348 335 336 343 347 357 356 346 347 2 10 84 335 21 270 211 173 83 130 139 133 114 70 43 86 200 187 121 80 95 16 2 313 255 159 187 179 183 184 188 194 204
355 350 344 342 329 339 11 6 5 351 330 290 298 277 306 333 314 186 185 169 178 163 121 134 90 210 179 197 154 137 121 112 110 23 53 326 322 180 161 203 212 194 190 199 207
349 344 338 336 323 359 32 50 32 334 308 340 286 278 302 11 99 133 170 146 142 129 137 40 208 154 166 158 152 172 162 155 104 150 156 204 282 175 175 233 222 192 195 200 205
344 339 332 333 337 65 45 19 345 335 245 308 322 313 17 147 131 164 167 168 131 140 164 159 215 141 145 188 187 190 264 154 159 177 230 186 287 123 229 247 192 199 201 197 205
337 333 326 330 331 34 76 348 338 334 65 303 337 12 202 202 334 180 181 169 129 173 166 228 286 162 150 181 173 110 356 218 155 157 232 207 198 214 206 210 218 204 200 202 203
331 324 313 228 243 303 323 337 337 20 61 290 304 130 178 194 121 169 182 172 145 151 96 249 306 127 166 198 134 77 69 4 82 89 107 193 106 229 169 209 206 218 209 202 206
327 320 289 237 231 258 317 331 9 43 45 347 351 153 76 10 4 92 148 151 204 163 73 234 215 172 213 164 145 148 95 14 28 107 330 213 180 216 192 209 198 213 208 199 200
331 320 258 226 196 228 313 331 38 98 335 316 246 20 69 345 351 24 135 146 160 92 305 316 227 208 166 76 40 94 86 214 338 0 236 289 170 258 207 187 190 200 193 200 200
340 329 266 213 209 254 327 48 74 293 248 331 102 70 74 336 12 343 87 209 210 124 293 239 178 163 187 168 177 178 140 170 142 313 307 283 237 261 190 194 202 204 192 195 199
350 353 320 196 200 263 343 56 207 199 257 255 37 79 344 322 232 29 62 236 222 172 173 230 279 244 189 153 133 199 131 199 102 144 4 241 277 313 69 72 232 193 183 192 196
17 24 73 173 185 244 68 230 236 219 251 137 177 157 201 342 327 29 341 225 311 197 174 258 305 308 54 101 51 144 138 93 8 6 278 272 268 134 336 176 120 172 189 191 198
38 102 100 147 163 313 134 240 275 274 231 156 183 149 96 262 63 304 178 275 228 318 151 175 122 297 41 252 155 126 191 52 108 167 214 281 292 344 267 219 141 150 187 193 205
52 78 162 163 25 39 165 229 312 295 155 256 134 144 153 180 129 300 259 237 329 254 89 151 140 99 171 288 243 163 158 158 128 213 231 145 309 331 5 30 62 170 202 213 216
6 84 149 178 96 323 301 284 250 297 10 162 14 39 132 143 77 228 250 278 339 46 84 183 48 71 13 343 353 66 13 119 115 86 176 146 268 22 15 31 30 18 350 248 224
357 66 128 199 214 154 307 282 319 255 60 62 46 80 89 56 43 315 318 309 333 46 49 95 46 136 159 213 213 1 2 65 25 127 161 210 119 1 357 6 0 11 350 311 212
4 20 127 233 308 195 187 276 275 304 54 40 22 16 115 98 32 347 44 328 344 12 29 91 38 69 117 135 107 63 12 37 4 336 123 160 111 334 317 28 24 50 49 73 135
23 13 341 287 286 268 171 224 211 152 63 28 124 125 116 118 165 184 282 148 301 340 91 334 142 303 40 102 43 21 34 82 40 66 83 120 100 222 68 58 50 43 49 58 68
353 332 321 305 330 89 218 278 228 139 59 148 146 102 87 180 201 299 302 301 244 313 0 60 102 58 336 73 70 349 359 337 40 49 32 341 103 165 87 66 51 55 62 68 83